Regional Weather Roundup
Issued by NWS

Home | Current Version | Previous Version | Text Only | Print | Product List | Glossary On
Versions: 1 2 3 4 5 6 7 8 9 10 11 12 13 14 15 16 17 18 19 20 21 22 23 24 25 26 27
000
ASUS42 KKEY 241110
RWRKEY

FLORIDA REGIONAL WEATHER ROUNDUP FOR THE FLORIDA KEYS
NATIONAL WEATHER SERVICE KEY WEST FLORIDA
700 AM EDT FRI OCT 24 2014

...SOUTH FLORIDA AND THE KEYS...

CITY           SKY/WX    TMP DP  RH WIND       PRES   REMARKS
FORT MYERS     CLEAR     64  58  80 NE12      29.90R
SW REGIONAL AP CLEAR     65  58  78 N8        29.90R
NAPLES         CLEAR     70  60  70 NE13      29.87R
MIAMI          LGT RAIN  74  72  93 NE10      29.84R FOG
WEST KENDALL   LGT RAIN  75  72  90 NE13      29.84S
HOMESTEAD      LGT RAIN  75  73  94 NE17      29.82S
MARATHON       HVY RAIN  75  32  20 NE12      29.81R
BOCA CHICA NAS CLOUDY    75  72  90 NE16      29.81R
KEY WEST INTL  CLOUDY    76  75  97 NE10G21   29.82R

...INTERNATIONAL WEATHER...

CITY           SKY/WX    TMP DP  RH WIND       PRES   REMARKS
NASSAU BAHAMAS RAIN      75  73  94 E6        29.86R
CANCUN MEXICO  PTCLDY    73  73 100 CALM      29.80S
COZUMEL MEXICO CLOUDY    72  72 100 CALM      29.80R

ADJACENT COASTAL WATERS...

STATION/POSITION TIME  SKY/WX   TEMP    WIND        PRES    WAVE
                                AIR SEA DIR/SP/G            HT/PER
                 (UTC)          (F)     (DEG/KT/KT) (MB)    (FT/S)
PULASKI SHOAL LI 1000            79      60/ 23/ 26 1009.5R
SAND KEY         1038            76      50/ 21/ 24 1009.2R
SOMBRERO KEY     1100            75      30/ 20/ 23 1009.3R
LONG KEY         0956            76 78   20/ 17/ 19 1009.4F
MOLASSES REEF    1100            77 82   70/ 14/ 16 1009.1R
FOWEY ROCKS      1100            77 81   30/ 25/ 27 1009.9R
Buoy 42080       NOT AVBL

$$



USA.gov is the U.S. government's official web portal to all federal, state and local government web resources and services.